GSAT0222 (PRN E33) (43565 NORAD) Tracking and Keplerian Element Data

This shows tracking and keplerian element data for the satellite.

Feedback or suggestion? Click here.




ElementValue
Catalog43565
NameGSAT0222 (PRN E33)
Epoch Orbit192
Epoch Day316.328344
Epoch Year2018
RAAN57.0876
Inclination56.4063
Eccentricity0.0003929
Argument of Perigee258.9338
Mean Anonmoly101.0256
Mean Motion1.70476562
Decay Rate-6.6E-07
L11 43565U 18060B 18316.32834400 -.00000066 00000-0 00000-0 0 9994
L22 43565 56.4063 57.0876 0003929 258.9338 101.0256 1.70476562 1928

Live tracking and technical data element details for GSAT0222 (PRN E33) (NORAD 43565). GSAT0222 (PRN E33) can be tracked NOW for your location showing map with azimuth and elevation plus other details from your city location.

Track the satellite on the map from your city or location and see movement details for azimuth, elevation, latitude, longitude, range, height, and movement on the map or in text.







IsCatalogInMostPopularTable: catalog: 43565, numindb: 39
Update: records affected: 1



GetName: 43565 GSAT0222 (PRN E33)

Hit Count: updated at: Thu, 15 Nov 2018 03:42:20 GMT